Regional Weather Roundup
Issued by NWS Goodland, KS

Home | Current Version | Previous Version | Graphics & Text | Print | Product List | Glossary On
Versions: 1 2 3 4 5 6 7 8 9 10 11 12 13 14 15 16 17 18 19 20 21 22 23 24 25 26 27 28 29 30 31 32 33 34 35 36 37 38 39 40 41 42 43 44 45 46 47 48 49 50
000
ASUS43 KGLD 311708
RWRGLD

GOODLAND FORECAST AREA HOURLY WEATHER ROUNDUP
NATIONAL WEATHER SERVICE GOODLAND KS
1100 AM MDT FRI OCT 31 2014

...OFFICIAL OBSERVATIONS...

CITY           SKY/WX    TMP DP  RH WIND       PRES   REMARKS
GOODLAND KS    MOSUNNY   37  29  72 SE10      30.47F
HILL CITY KS   SUNNY     38  24  57 E12       30.55F
IMPERIAL NEB   PTSUNNY   32  27  81 SE9G21    30.47F
MCCOOK NEB     SUNNY     36  24  62 VRB3      30.53F
AKRON CO       SUNNY     43  28  55 SE25      30.36F
BURLINGTON CO  SUNNY     43  29  57 SE18      30.43F
LIMON CO       SUNNY     42  28  57 SE22G29   30.37F
$$

...UNOFFICIAL OBSERVATIONS...

CITY           SKY/WX    TMP DP  RH WIND       PRES   REMARKS
COLBY KS       CLOUDY    34  32  93 E8        30.51F
NORTON KS      SUNNY     37  21  52 E7        30.53F
SHARON SPRINGS   N/A     38  32  79 CALM        N/A
TRENTON NEB      N/A     37  32  82 SE6         N/A
YUMA CO          N/A     43  29  57 E12G21      N/A
$$



USA.gov is the U.S. government's official web portal to all federal, state and local government web resources and services.